Location: Detroit
(42.3310°N, 83.0460°W)
Time: 04:28:10
(UTC-05:00)

Vanguard 2 - All Passes

Search period start: 31 January 2023 00:00
Search period end: 10 February 2023 00:00
Orbit: 553 x 2930 km, 32.9° (Epoch: 30 January)

Date Brightness Start Highest point End Pass type
(mag) Time Alt. Az. Time Alt. Az. Time Alt. Az.
31 Jan - 01:08:35 10° WSW 01:25:25 62° S 01:41:25 10° ESE visible
31 Jan - 03:20:13 10° W 03:37:08 52° SSW 03:50:33 10° SE visible
31 Jan - 05:34:07 10° W 05:46:46 28° SW 05:56:27 10° SSE visible
31 Jan - 21:09:12 10° SSW 21:20:13 30° SE 21:33:55 10° E visible
31 Jan - 23:15:39 10° SW 23:30:23 54° SSE 23:47:14 10° E visible
01 Feb - 01:25:25 10° WSW 01:42:18 61° S 01:58:13 10° ESE visible
01 Feb - 03:37:19 10° W 03:53:46 47° SSW 04:06:55 10° SE visible
01 Feb - 05:52:07 10° W 06:02:57 22° SW 06:11:38 10° S visible
01 Feb - 19:25:09 10° SE 19:28:25 11° SE 19:31:58 10° ESE visible
01 Feb - 21:24:52 10° SSW 21:36:32 36° SE 21:51:26 10° E visible
01 Feb - 23:32:11 10° WSW 23:47:08 58° SSE 00:04:14 10° E visible
02 Feb - 01:42:19 10° W 01:59:10 60° S 02:14:57 10° ESE visible
02 Feb - 03:54:29 10° W 04:10:18 41° SSW 04:23:04 10° SE visible
02 Feb - 06:10:52 10° W 06:19:01 16° SW 06:25:59 10° SSW visible
02 Feb - 19:37:41 10° SSE 19:44:26 17° SE 19:52:34 10° E visible
02 Feb - 21:40:51 10° SW 21:52:57 42° SSE 22:08:43 10° E visible
02 Feb - 23:48:50 10° WSW 00:03:58 60° S 00:21:10 10° E visible
03 Feb - 01:59:15 10° W 02:15:59 57° SSW 02:31:34 10° ESE visible
03 Feb - 04:11:49 10° W 04:26:44 35° SW 04:38:59 10° SSE visible
03 Feb - 06:32:16 10° WSW 06:35:03 11° SW 06:37:41 10° SW visible
03 Feb - 19:52:16 10° S 20:00:30 22° SE 20:11:07 10° E visible
03 Feb - 21:57:04 10° SW 22:09:29 48° SSE 22:25:53 10° E visible
04 Feb - 00:05:34 10° WSW 00:20:50 61° S 00:38:04 10° ESE visible
04 Feb - 02:16:14 10° W 02:32:45 52° SSW 02:48:04 10° SE visible
04 Feb - 04:29:23 10° W 04:43:02 29° SW 04:54:31 10° SSE visible
04 Feb - 20:07:34 10° SSW 20:16:40 28° SE 20:28:59 10° E visible
04 Feb - 22:13:28 10° SW 22:26:08 53° SSE 22:42:57 10° E visible
05 Feb - 00:22:22 10° WSW 00:37:42 61° S 00:54:52 10° ESE visible
05 Feb - 02:33:17 10° W 02:49:24 47° SSW 03:04:22 10° SE visible
05 Feb - 04:47:21 10° W 04:59:16 23° SW 05:09:34 10° S visible
05 Feb - 20:23:17 10° SSW 20:32:56 34° SE 20:46:29 10° E visible
05 Feb - 22:30:00 10° WSW 22:42:51 57° SSE 22:59:57 10° E visible
06 Feb - 00:39:12 10° W 00:54:33 59° S 01:11:35 10° ESE visible
06 Feb - 02:50:26 10° W 03:05:58 41° SSW 03:20:26 10° SSE visible
06 Feb - 05:06:05 10° W 05:15:25 17° SW 05:23:47 10° SSW visible
06 Feb - 18:36:49 10° SSE 18:41:32 14° SE 18:47:12 10° ESE visible
06 Feb - 20:39:19 10° SW 20:49:19 41° SSE 21:03:47 10° E visible
06 Feb - 22:46:37 10° WSW 22:59:38 59° S 23:16:55 10° E visible
07 Feb - 00:56:05 10° W 01:11:22 56° SSW 01:28:10 10° ESE visible
07 Feb - 03:07:44 10° W 03:22:27 35° SW 03:36:13 10° SSE visible
07 Feb - 05:26:58 10° WSW 05:31:30 12° SW 05:35:50 10° SW visible
07 Feb - 18:51:14 10° S 18:57:35 20° SE 19:05:56 10° E visible
07 Feb - 20:55:33 10° SW 21:05:48 46° SSE 21:20:55 10° E visible
07 Feb - 23:03:19 10° WSW 23:16:27 60° S 23:33:47 10° ESE visible
08 Feb - 01:13:02 10° W 01:28:07 51° SSW 01:44:37 10° SE visible
08 Feb - 03:25:18 10° W 03:38:49 29° SW 03:51:36 10° SSE visible
08 Feb - 19:06:32 10° SSW 19:13:44 25° SE 19:23:49 10° E visible
08 Feb - 21:11:57 10° SW 21:22:25 51° SSE 21:37:59 10° E visible
08 Feb - 23:20:05 10° WSW 23:33:18 59° S 23:50:35 10° ESE visible
09 Feb - 01:30:03 10° W 01:44:49 45° SSW 02:00:50 10° SE visible
09 Feb - 03:43:18 10° W 03:55:08 23° SW 04:06:28 10° S visible
09 Feb - 19:22:17 10° SSW 19:29:59 31° SE 19:41:19 10° E visible
09 Feb - 21:28:28 10° WSW 21:39:06 55° SSE 21:55:00 10° E visible
